Welcome to mirrors.dotsrc.org

All our mirrors of open source software are available via http, https, ftp and an onion service. More information about our mirrors including statistics and contact information is available on our mirror info pages.

For information about dotsrc.org and our other services please go to our website.

Index of /mirrors/mirrors/ubuntu/ubuntu/ubuntu/pool/universe/m/

File Name  ↓ File Size  ↓ Date  ↓ 
Parent directory/--
moblin-menus/-2009-12-05 23:04:59
mova/-2011-09-15 14:01:50
movixmaker-2/-2011-09-20 05:40:03
msnlib/-2012-01-09 11:04:38
multipartposthandler/-2012-01-09 11:04:38
modello-maven-plugin1.4/-2012-01-09 16:34:37
magictouch/-2012-02-05 22:33:46
mttroff/-2012-02-18 18:33:48
multitet/-2012-02-18 19:03:35
mboxcheck/-2012-05-01 11:04:06
mysql-mmm/-2012-05-01 11:35:49
munin-plugins-openstack/-2012-07-02 16:04:29
mythbuntu-diskless/-2012-08-02 15:04:53
mythnettv/-2014-01-27 17:04:10
memphis/-2014-02-19 10:08:51
mic2/-2014-02-19 10:28:43
maas-test/-2014-04-10 18:42:53
mate-dialogs/-2014-05-21 12:37:20
mythbuntu-lightdm-theme/-2015-04-26 12:10:33
monogame/-2015-04-27 15:55:28
mirror.js/-2015-04-27 15:55:30
mana/-2015-04-27 15:55:35
memoise/-2015-04-28 17:59:06
media-ctl/-2015-04-28 17:59:06
mate-doc-utils/-2015-04-28 17:59:08
maliit-plugins/-2015-04-28 17:59:10
mediascanner/-2015-04-28 18:03:15
mythbuntu-gdm-theme/-2015-04-30 13:19:47
musiclibrarian/-2015-04-30 13:19:47
mingw32-runtime/-2015-04-30 13:19:48
mozart-stdlib/-2015-04-30 13:19:48
minirok/-2015-04-30 13:19:48
mffm-timecode/-2015-04-30 13:19:48
mgm/-2015-04-30 13:19:48
moodle-debian-edu-theme/-2015-04-30 13:19:48
mailplate/-2015-04-30 13:19:49
malbolge/-2015-04-30 13:19:49
macchanger-gtk/-2015-04-30 13:19:49
metainit/-2015-04-30 13:21:00
mnemosyne-blog/-2015-06-15 05:23:44
modello1.4/-2015-07-13 18:16:46
maven-compiler-plugin-2.5/-2015-07-26 06:14:26
mopidy-youtube/-2015-08-09 06:18:57
mopidy-podcast-gpodder/-2015-10-24 10:30:13
maven-ant-tasks/-2015-11-17 05:44:59
mango-lassi/-2015-12-04 10:31:46
mod-authnz-persona/-2015-12-04 11:26:12
msgpack/-2015-12-04 11:56:13
musique/-2015-12-04 11:56:26
mangonel/-2015-12-05 01:05:27
mariadb-client-lgpl/-2015-12-05 01:05:28
mmsd/-2015-12-05 01:47:14
mnemonicode/-2015-12-05 01:47:15
mooproxy/-2015-12-05 01:47:16
music-hub/-2015-12-05 01:47:30
mi2svg/-2015-12-05 08:00:26
maptransfer/-2015-12-13 23:49:22
myghty/-2015-12-13 23:49:26
mate-accountsdialog/-2015-12-28 14:14:27
mailping/-2016-01-17 16:39:09
mmtk/-2016-02-11 19:00:01
modestmaps-js/-2016-05-06 23:24:37
minetest-mod-mobf/-2016-06-12 23:34:43
mcollective-plugins/-2016-07-04 14:00:17
mauve/-2016-10-31 12:14:49
myghtyutils/-2016-10-31 12:45:41
micro-proxy/-2016-10-31 12:45:42
makejvf/-2016-10-31 12:45:43
minit/-2016-10-31 13:22:45
mythnettv-gui/-2016-11-01 01:06:56
mtpfs/-2016-11-01 01:06:58
multiget/-2016-11-01 01:06:58
mrtg-rrd/-2016-11-01 01:06:58
mpage/-2016-11-01 01:07:12
mozart/-2016-11-01 01:07:15
monkeytail/-2016-11-01 01:07:21
mixal/-2016-11-01 01:07:23
memaker/-2016-11-01 01:07:27
mce-dev/-2016-11-01 01:07:30
manpages-es/-2016-11-01 01:07:32
mach/-2016-11-01 01:07:37
mod-spamhaus/-2016-11-01 01:14:18
mythbuntu-lirc-generator/-2016-11-01 08:06:33
mythbuntu-log-grabber/-2016-11-01 08:06:33
mysql-proxy/-2016-11-01 08:06:34
mr/-2016-11-01 08:06:37
msn-pecan/-2016-11-01 08:06:37
movabletype-opensource/-2016-11-01 08:06:38
mp/-2016-11-01 08:06:38
monodevelop-debugger-gdb/-2016-11-01 08:06:43
monobristol/-2016-11-01 08:06:43
monkey-bubble/-2016-11-01 08:06:43
mingw32-binutils/-2016-11-01 08:06:46
mirrorkit/-2016-11-01 08:06:46
mingw32/-2016-11-01 08:06:46
micro-inetd/-2016-11-01 08:06:46
md5deep/-2016-11-01 08:06:48
mathwar/-2016-11-01 08:06:49
manpages-fr/-2016-11-01 08:06:50
magicor/-2016-11-01 08:06:51
mysql-connector-net/-2016-11-01 08:11:38
myodbc/-2016-11-01 08:11:38
mono-uia/-2016-11-01 08:11:48
module-build-cipux/-2016-11-01 08:11:49
matrixssl/-2016-11-01 08:11:53
maven-docck-plugin/-2016-11-01 08:11:53
maven-embedder/-2016-11-01 08:11:53
maven-ear-plugin/-2016-11-01 08:11:53
mochikit/-2016-11-01 08:12:14
mythbuntu-control-centre/-2016-11-01 13:09:36
mythbuntu-default-settings/-2016-11-01 13:09:36
muddleftpd/-2016-11-01 13:09:39
mago/-2016-11-01 13:09:53
mistelix/-2016-11-02 07:12:28
mono-reference-assemblies/-2016-11-02 12:41:51
mozplugger/-2016-11-02 12:49:20
minetest-mod-animalmaterials/-2016-11-02 22:22:03
mozjs17/-2016-11-03 19:02:10
mysql-sandbox/-2017-01-07 05:24:13
mytop/-2017-01-11 18:25:47
moksha.hub/-2017-01-13 05:13:23
mendexk/-2017-02-20 12:18:59
mozvoikko/-2017-02-24 06:18:39
mx44/-2017-02-26 12:16:05
mythbuntu-bare/-2017-04-01 06:15:55
migration-assistant/-2017-04-06 06:43:52
maximus/-2017-04-06 06:43:53
mod-authn-webid/-2017-04-06 06:44:16
mensis/-2017-06-16 00:17:26
maven-filtering/-2017-07-18 23:38:57
maven-file-management/-2017-07-19 23:13:31
maven-verifier/-2017-07-20 18:00:08
maven-ejb-plugin/-2017-07-27 11:18:24
maven-shared-incremental/-2017-07-28 12:14:10
maven-antrun-extended-plugin/-2017-07-28 23:23:45
munge-maven-plugin/-2017-08-01 05:29:22
mailman-api/-2017-08-24 05:13:37
maven-source-plugin/-2017-08-26 06:17:23
maven-shared-jar/-2017-09-07 18:15:32
msp430-libc/-2017-09-09 12:28:27
maven-deploy-plugin/-2017-09-15 18:19:27
maven-assembly-plugin/-2017-09-18 12:14:04
maven-antrun-plugin/-2017-09-21 18:17:14
maven-reporting-impl/-2017-09-22 00:19:27
mockobjects/-2017-11-02 23:14:16
monajat/-2017-11-03 01:23:58
mac-fdisk/-2017-11-10 08:41:07
moxie.js/-2017-12-31 05:56:43
museek+/-2018-01-19 09:22:23
msrtool/-2018-01-19 09:22:24
mopd/-2018-01-19 09:22:26
monav/-2018-01-19 09:22:27
medit/-2018-01-19 09:22:33
me-tv/-2018-01-19 09:22:34
mailcrypt/-2018-01-19 09:22:42
minc/-2018-01-19 09:24:17
mythbuntu-live-autostart/-2018-01-22 08:45:15
mutt-kz/-2018-01-22 08:45:20
mumble-django/-2018-01-22 08:45:22
mtasc/-2018-01-22 08:45:23
mstflint4/-2018-01-22 08:45:23
mplayerthumbs/-2018-01-22 08:45:24
mplayer2/-2018-01-22 08:45:24
mp3splt-gtk/-2018-01-22 08:45:27
mozilla-password-editor/-2018-01-22 08:45:27
morituri/-2018-01-22 08:45:28
moodbar/-2018-01-22 08:45:28
moodle/-2018-01-22 08:45:28
monodevelop-database/-2018-01-22 08:45:29
monotone-viz/-2018-01-22 08:45:29
monodevelop/-2018-01-22 08:45:29
miro/-2018-01-22 08:45:32
minbar/-2018-01-22 08:45:34
mediawiki-extensions/-2018-01-22 08:45:38
mdpress/-2018-01-22 08:45:38
maven2/-2018-01-22 08:45:40
mate-netspeed/-2018-01-22 08:45:41
mysql-5.6/-2018-01-22 08:48:08
mule/-2018-01-22 08:48:11
mmpong/-2018-01-22 08:48:17
mathcomp/-2018-01-22 08:48:21
maven-stapler-plugin/-2018-01-22 08:48:21
maven-project-info-reports-plugin/-2018-01-22 08:48:21
maven-hpi-plugin/-2018-01-22 08:48:21
mummy/-2018-01-22 08:48:38
mod-mono/-2018-01-22 08:50:25
midgard2-core/-2018-01-22 08:51:40
m17n-db/-2018-01-22 18:17:38
mythbuntu-common/-2018-01-23 08:50:04
monotone/-2018-01-23 08:50:26
mmass/-2018-01-23 08:50:30
mkdocs-bootswatch/-2018-01-23 08:50:32
mdbus/-2018-01-23 08:50:46
mcmcpack/-2018-01-23 08:50:47
mandelbulber/-2018-01-23 08:50:59
maitreya/-2018-01-23 08:51:02
ming/-2018-01-23 08:56:53
mgrs/-2018-01-23 08:57:57
mx/-2018-01-23 09:11:41
memleax/-2018-01-31 09:20:00
manpages-tr/-2018-02-09 17:31:31
measurement-kit/-2018-02-10 00:21:26
mkelfimage/-2018-04-05 08:04:19
mumudvb/-2018-04-05 08:04:55
mxallowd/-2018-04-05 09:25:39
mythtvfs-fuse/-2018-04-05 09:25:39
mlbviewer/-2018-04-07 06:15:28
mythexport/-2018-04-20 01:58:34
myspell-hr/-2018-04-20 07:58:57
module-assistant/-2018-05-05 00:07:32
messaging-app/-2018-06-22 15:12:53
mock/-2018-06-22 15:12:53
mediaplayer-app/-2018-06-22 15:12:53
musixtex/-2018-06-22 15:12:53
matita/-2018-06-22 15:12:53
memcachedb/-2018-06-22 15:12:53
m-tx/-2018-06-22 15:12:54
mtp/-2018-06-22 15:13:01
mp4v2/-2018-06-22 15:13:02
maven-script-interpreter/-2018-06-22 15:13:02
maven-invoker-plugin/-2018-06-22 15:13:02
maven-invoker/-2018-06-22 15:13:02
myrepos/-2018-07-26 11:18:22
mrrescue/-2018-08-05 11:13:24
modulator/-2018-09-19 17:58:19
magicmaze/-2018-11-09 11:34:08
mason/-2018-11-09 11:34:10
mb2md/-2018-11-09 11:34:18
mokutil/-2018-11-22 00:23:45
mpj/-2019-01-13 17:18:49
minify-maven-plugin/-2019-01-13 23:18:34
mp4parser/-2019-01-23 19:12:09
mac-widgets/-2019-01-30 05:18:20
meta-gnustep/-2019-02-07 08:08:34
mariadb-10.0/-2019-02-13 06:20:42
maven-enforcer/-2019-02-26 18:18:23
maven-plugin-tools/-2019-02-26 18:18:23
morfologik-stemming/-2019-02-28 07:23:37
maven-parent/-2019-03-09 07:28:18
maven-clean-plugin/-2019-03-09 07:28:19
maven-doxia-tools/-2019-03-09 07:28:19
maven-shade-plugin/-2019-03-09 07:33:19
maven-resources-plugin/-2019-03-09 07:33:19
maven-plugin-testing/-2019-03-09 07:33:20
mavibot/-2019-03-09 08:13:19
msv/-2019-03-09 08:18:18
mat/-2019-04-05 00:41:07
mina/-2019-04-21 13:10:38
mariadb-5.5/-2019-05-25 00:13:22
modello-maven-plugin/-2019-07-09 13:38:41
molly-guard/-2019-07-09 23:39:34
mrename/-2019-07-22 11:18:29
manpages-pl/-2019-08-04 17:24:19
mh-e/-2019-10-02 00:19:17
mercurial-crecord/-2019-10-25 22:50:45
multex-base/-2019-10-25 22:50:53
maven-replacer-plugin/-2019-10-26 01:54:47
mueller/-2019-12-22 00:15:51
mandrill/-2020-01-11 19:08:50
mocker/-2020-01-11 19:08:50
moosic/-2020-01-11 19:08:53
model-builder/-2020-01-14 18:40:00
mysql-utilities/-2020-01-15 00:16:17
mopidy-gmusic/-2020-01-23 00:19:31
mako/-2020-02-23 06:15:51
mercurial-server/-2020-03-30 18:34:43
mimms/-2020-03-31 18:34:32
mpris-remote/-2020-03-31 18:34:32
mailto/-2020-04-02 18:09:10
mbw/-2020-04-02 18:09:15
ministat/-2020-04-02 18:09:16
midicsv/-2020-04-02 18:09:17
mpt-status/-2020-04-02 18:09:18
mixer.app/-2020-04-02 18:09:20
mppenc/-2020-04-02 18:09:20
mutextrace/-2020-04-02 18:23:52
multitee/-2020-04-02 18:23:52
minizip/-2020-04-02 18:23:54
mancala/-2020-04-03 03:53:49
multiwatch/-2020-04-03 04:08:43
mimelib1/-2020-04-03 04:58:41
madwimax/-2020-04-03 06:13:34
masqmail/-2020-04-03 06:13:46
mah-jong/-2020-04-03 06:13:55
maas-enlist/-2020-04-03 09:44:18
makexvpics/-2020-04-03 09:44:21
members/-2020-04-03 10:13:52
memstat/-2020-04-03 10:13:54
mergelog/-2020-04-03 10:13:57
minisat+/-2020-04-03 10:14:27
minisat2/-2020-04-03 10:14:28
minimodem/-2020-04-03 10:14:29
minisapserver/-2020-04-03 10:28:33
morse2ascii/-2020-04-03 10:28:45
mp3wrap/-2020-04-03 10:28:51
mpegdemux/-2020-04-03 10:28:52
mpgtx/-2020-04-03 10:28:53
msgpuck/-2020-04-03 10:43:36
mpeg2dec/-2020-04-03 10:43:38
msi-keyboard/-2020-04-03 10:58:28
mtbl/-2020-04-03 10:58:30
musescore-sftools/-2020-04-03 10:58:33
myspell/-2020-04-03 10:58:34
mswatch/-2020-04-03 10:58:37
mysecureshell/-2020-04-03 11:13:39
mgdiff/-2020-04-03 14:54:19
mz/-2020-04-04 14:23:25
mpm-itk/-2020-04-04 15:08:42
mod-proxy-msrpc/-2020-04-04 15:08:44
meterbridge/-2020-04-04 16:03:27
maliit-inputcontext-gtk/-2020-04-05 05:49:05
mountpy/-2020-04-05 07:33:33
mod-mime-xattr/-2020-04-05 07:33:33
most/-2020-04-05 07:33:34
memchan/-2020-04-05 07:33:34
mactelnet/-2020-04-05 07:33:34
ministocks/-2020-04-05 11:43:37
mod-authz-securepass/-2020-04-06 01:28:23
mod-dnssd/-2020-04-06 01:43:22
mod-gnutls/-2020-04-06 01:43:26
mousetrap/-2020-04-06 03:53:23
minbif/-2020-04-07 11:08:19
mercurial-buildpackage/-2020-04-13 14:38:24
miceamaze/-2020-04-13 16:53:32
meta-ocaml/-2020-04-27 21:14:13
metacity-themes/-2020-04-27 21:14:21
manpages-fr-extra/-2020-04-27 21:15:08
mkdocs-nature/-2020-04-27 21:15:27
mcollective/-2020-04-27 21:15:28
multistrap/-2020-04-27 21:15:39
mp3cd/-2020-04-27 21:15:39
maven-remote-resources-plugin/-2020-04-28 00:26:21
minetest-mod-xdecor/-2020-04-28 00:26:21
munin-libvirt-plugins/-2020-04-28 00:26:24
maloc/-2020-04-28 01:34:51
mcron/-2020-04-28 01:43:45
mudita24/-2020-04-28 02:21:27
mbpoll/-2020-04-28 11:21:46
mftrace/-2020-04-29 00:13:49
mailtextbody/-2020-05-02 23:33:23
miwm/-2020-05-17 06:14:40
mpg123-el/-2020-05-21 00:14:12
mailagent/-2020-05-22 03:28:18
mingetty/-2020-05-25 06:13:24
mmtf-python/-2020-06-19 00:14:21
matchbox/-2020-06-23 05:28:50
matchbox-common/-2020-06-23 05:28:53
matchbox-themes-extra/-2020-06-23 05:28:53
mcu8051ide/-2020-07-08 23:24:01
mtd-utils/-2020-07-10 21:51:19
mrxvt/-2020-07-10 21:51:19
molds/-2020-07-10 21:51:20
mirmon/-2020-07-10 21:51:20
mixmaster/-2020-07-10 21:51:20
mon/-2020-07-10 21:51:20
monkeystudio/-2020-07-10 21:51:20
mon-contrib/-2020-07-10 21:51:20
metaphlan2-data/-2020-07-10 21:51:21
mediatomb/-2020-07-10 21:51:21
matchit/-2020-07-10 21:51:22
mcrl2/-2020-07-10 21:51:22
matanza/-2020-07-10 21:51:22
mate-icon-theme-faenza/-2020-07-10 21:51:22
mathpartir/-2020-07-10 21:51:22
mcelog/-2020-07-10 21:51:22
mcp-plugins/-2020-07-10 21:51:22
mail-notification/-2020-07-10 21:51:23
maildir-filter/-2020-07-10 21:51:23
m2ext/-2020-07-10 21:51:23
mysql-connector-java/-2020-07-10 21:51:43
mvel/-2020-07-10 21:51:43
mozjs/-2020-07-10 21:51:44
mozjs38/-2020-07-10 21:51:44
media-hub/-2020-07-10 21:51:44
mediascanner2/-2020-07-10 21:51:44
mozjs24/-2020-07-10 21:51:44
maven-war-plugin/-2020-07-10 21:51:45
maven-shared-io/-2020-07-10 21:51:45
maven-bundle-plugin/-2020-07-10 21:51:45
maven-dependency-plugin/-2020-07-10 21:51:45
maven2-core/-2020-07-10 21:51:45
maven-repository-builder/-2020-07-10 21:51:45
maven-indexer/-2020-07-10 21:51:45
maven-processor-plugin/-2020-07-10 21:51:45
mojarra/-2020-07-10 21:51:48
m2vrequantiser/-2020-07-12 00:15:10
minetest-mod-animals/-2020-07-13 08:50:02
mecab-naist-jdic/-2020-07-13 08:50:02
mpi-testsuite/-2020-07-13 08:50:02
minetest-mod-advspawning/-2020-07-13 08:50:02
mecab-jumandic/-2020-07-13 08:50:02
mediawiki-math/-2020-07-13 08:50:02
minetest-mod-mobf-core/-2020-07-13 08:50:02
metro-policy/-2020-07-13 08:50:18
mariadb-connector-c/-2020-07-13 08:50:18
mongo-java-driver/-2020-07-13 08:50:18
migrate/-2020-07-14 14:43:57
mwc/-2020-07-14 14:44:05
musica/-2020-07-14 14:44:05
mlbstreamer/-2020-07-14 14:44:06
monkeysign/-2020-07-14 14:44:06
modestmaps-py/-2020-07-14 14:44:06
mupen64plus/-2020-07-14 14:44:06
mipp/-2020-07-14 14:44:06
mosquitto-auth-plugin/-2020-07-14 14:44:06
minetest-mod-torches/-2020-07-14 14:44:06
mecab-ipadic/-2020-07-14 14:44:07
mdp/-2020-07-14 14:44:07
megadown/-2020-07-14 14:44:07
mapbox-vector-tile/-2020-07-14 14:44:07
mono-basic/-2020-07-14 14:44:22
modello/-2020-07-14 14:44:22
maven-jar-plugin/-2020-07-14 14:44:22
mingw-ocaml/-2020-07-14 14:44:48
markdown-toc-el/-2020-07-14 14:44:51
magithub/-2020-07-14 14:44:51
mutrace/-2020-07-26 12:14:56
mmorph/-2020-07-27 18:23:45
mpc123/-2020-07-28 12:21:37
matlab2tikz/-2020-08-02 23:18:48
mapbox-variant/-2020-08-03 23:18:52
mercantile/-2020-08-06 15:43:45
mapbox-geometry/-2020-08-07 00:13:53
mcpdisp/-2020-08-11 16:38:45
mencal/-2020-08-15 12:14:17
mathjax/-2020-08-29 12:14:22
mongo-tools/-2020-09-14 12:15:16
meliae/-2020-10-10 00:14:11
mimefilter/-2020-10-28 23:30:03
mkdocs-bootstrap/-2020-10-28 23:38:55
mkchromecast/-2020-10-28 23:38:56
mqtt-client/-2020-10-28 23:39:06
mp3report/-2020-10-28 23:39:06
mpl-scatter-density/-2020-10-28 23:43:50
morfologik-stemming2/-2020-10-29 07:37:04
mp3guessenc/-2020-10-29 09:48:44
m4api/-2020-10-29 17:10:02
microsocks/-2020-10-29 17:10:04
mojoshader/-2020-10-30 00:14:11
morfessor/-2020-10-31 18:15:11
mkgmapgui/-2020-11-02 00:21:09
misery/-2020-11-02 13:43:40
mediathekview/-2020-11-03 22:33:39
mediaelement/-2020-11-11 03:03:44
message-templ/-2020-11-18 05:28:46
mobile-tweaks/-2020-11-18 12:14:47
mhap/-2020-11-26 05:23:53
melting/-2020-11-30 05:24:19
mps-youtube/-2020-12-04 09:33:51
mecat2/-2020-12-07 12:15:14
mutt-alias-el/-2020-12-08 23:34:46
muse-el/-2020-12-08 23:34:46
muttrc-mode-el/-2020-12-08 23:34:50
menu-cache/-2020-12-09 11:54:48
magicfilter/-2020-12-21 06:14:41
multiboot/-2020-12-26 23:45:48
mootools/-2020-12-27 05:25:03
markdown/-2020-12-28 17:50:19
mono-tools/-2020-12-28 17:50:24
maven-archiver/-2020-12-28 23:46:54
myspell.pt/-2020-12-28 23:47:00
maven-reporting-api/-2020-12-29 05:35:52
maven-install-plugin/-2020-12-29 05:35:55
maven-dependency-tree/-2020-12-29 05:49:33
maven-mapping/-2020-12-29 11:30:10
mypaint-brushes/-2020-12-29 23:34:23
mididings/-2020-12-29 23:34:23
mpdas/-2020-12-29 23:34:23
mp3check/-2020-12-29 23:34:23
mboxgrep/-2020-12-29 23:34:23
makejail/-2020-12-29 23:34:23
mairix/-2020-12-29 23:34:23
mobyle-tutorials/-2020-12-29 23:34:23
mssh/-2020-12-29 23:34:23
mdm/-2020-12-29 23:34:23
mccs/-2020-12-29 23:34:23
mailsync/-2020-12-29 23:34:23
mpdcron/-2020-12-29 23:34:23
moria/-2020-12-29 23:34:23
morris/-2020-12-29 23:34:23
mobyle/-2020-12-29 23:34:23
multitime/-2020-12-29 23:34:23
maybe/-2020-12-29 23:34:23
mbtserver/-2020-12-29 23:34:23
mxt-app/-2020-12-29 23:34:23
munin-c/-2020-12-29 23:34:23
mkcue/-2020-12-29 23:34:23
moon-buggy/-2020-12-29 23:34:23
more-itertools/-2020-12-29 23:34:23
maq/-2020-12-29 23:34:23
mupen64plus-rsp-hle/-2020-12-29 23:34:23
mupen64plus-video-glide64/-2020-12-29 23:34:23
mseed2sac/-2020-12-29 23:34:23
mldemos/-2020-12-29 23:34:23
manpages-de/-2020-12-29 23:34:23
metar/-2020-12-29 23:34:23
mupen64plus-video-rice/-2020-12-29 23:34:23
maqview/-2020-12-29 23:34:23
myhdl/-2020-12-29 23:34:23
metaconfig/-2020-12-29 23:34:23
moap/-2020-12-29 23:34:23
mupen64plus-rsp-z64/-2020-12-29 23:34:23
mopidy-alsamixer/-2020-12-29 23:34:23
montage-wrapper/-2020-12-29 23:34:23
mapnik-vector-tile/-2020-12-29 23:34:23
matchbox-panel/-2020-12-29 23:34:23
mupen64plus-qt/-2020-12-29 23:34:23
mpg321/-2020-12-29 23:34:23
myrescue/-2020-12-29 23:34:23
miredo/-2020-12-29 23:34:23
mdns-scan/-2020-12-29 23:34:23
mirrormagic/-2020-12-29 23:34:23
mustang/-2020-12-29 23:34:23
multimon/-2020-12-29 23:34:23
mriconvert/-2020-12-29 23:34:23
mapcode/-2020-12-29 23:34:23
martian/-2020-12-29 23:34:23
maildrop/-2020-12-29 23:34:23
mupen64plus-ui-console/-2020-12-29 23:34:23
mlmmj/-2020-12-29 23:34:23
mokomaze/-2020-12-29 23:34:23
multimail/-2020-12-29 23:34:23
mupen64plus-audio-sdl/-2020-12-29 23:34:23
mdp-src/-2020-12-29 23:34:23
mhwaveedit/-2020-12-29 23:34:23
mobyle-programs/-2020-12-29 23:34:23
magic-wormhole-mailbox-server/-2020-12-29 23:34:23
multicat/-2020-12-29 23:34:23
maria/-2020-12-29 23:34:23
morse-simulator/-2020-12-29 23:34:23
mupen64plus-video-glide64mk2/-2020-12-29 23:34:23
memtool/-2020-12-29 23:34:23
mrtrix/-2020-12-29 23:34:23
mdf2iso/-2020-12-29 23:34:23
magic-wormhole-transit-relay/-2020-12-29 23:34:23
mgp/-2020-12-29 23:34:23
mopidy-soundcloud/-2020-12-29 23:34:23
mapnik-reference/-2020-12-29 23:34:23
menu/-2020-12-29 23:34:23
missidentify/-2020-12-29 23:34:23
mailcheck/-2020-12-29 23:34:23
mupen64plus-video-arachnoid/-2020-12-29 23:34:23
marionnet/-2020-12-29 23:34:23
motion/-2020-12-29 23:34:23
mopidy-mpris/-2020-12-29 23:34:23
midori/-2020-12-29 23:34:23
mudlet/-2020-12-29 23:34:23
mopidy-local-sqlite/-2020-12-29 23:34:23
macfanctld/-2020-12-29 23:34:23
mpqc3/-2020-12-29 23:34:23
makehuman/-2020-12-29 23:34:23
mutatormath/-2020-12-29 23:34:23
mupen64plus-input-sdl/-2020-12-29 23:34:23
makefs/-2020-12-29 23:34:23
mod-gearman/-2020-12-29 23:34:23
matroxset/-2020-12-29 23:34:23
mopidy-scrobbler/-2020-12-29 23:34:23
microcom/-2020-12-29 23:34:23
midish/-2020-12-29 23:34:23
macchanger/-2020-12-29 23:34:23
mikmod/-2020-12-29 23:34:23
mcomix/-2020-12-29 23:34:23
mscgen/-2020-12-29 23:34:23
makebootfat/-2020-12-29 23:34:23
mp4h/-2020-12-29 23:34:23
muon/-2020-12-29 23:34:23
mlv-smile/-2020-12-29 23:34:23
monsterz/-2020-12-29 23:34:23
mspdebug/-2020-12-29 23:34:23
mygpoclient/-2020-12-29 23:34:23
maas/-2020-12-29 23:34:23
mt-st/-2020-12-29 23:34:23
mgen/-2020-12-29 23:34:23
mopidy-dirble/-2020-12-29 23:34:23
mustang-plug/-2020-12-29 23:34:23
moserial/-2020-12-29 23:34:23
mozilla-devscripts/-2020-12-29 23:34:23
microbegps/-2020-12-29 23:34:23
mangler/-2020-12-29 23:34:25
mpqc/-2020-12-29 23:34:26
muroard/-2020-12-29 23:34:30
mrtdreader/-2020-12-29 23:34:30
mysql-connector-c++/-2020-12-29 23:34:30
mopac7/-2020-12-29 23:34:31
minpack/-2020-12-29 23:34:31
movit/-2020-12-29 23:34:31
maxflow/-2020-12-29 23:34:31
mercator/-2020-12-29 23:34:31
mbt/-2020-12-29 23:34:31
mrmpi/-2020-12-29 23:34:31
mapbox-wagyu/-2020-12-29 23:34:31
modglue/-2020-12-29 23:34:31
maven-compiler-plugin/-2020-12-29 23:34:31
mkl-dnn/-2020-12-29 23:34:31
minicoredumper/-2020-12-29 23:34:31
meep-lam4/-2020-12-29 23:34:31
mcpp/-2020-12-29 23:34:31
metrohash/-2020-12-29 23:34:31
m17n-im-config/-2020-12-29 23:34:31
miaviewit/-2020-12-29 23:34:31
meep-mpich2/-2020-12-29 23:34:31
minidjvu/-2020-12-29 23:34:31
maven-dependency-analyzer/-2020-12-29 23:34:31
mjpegtools/-2020-12-29 23:34:32
mod-wsgi/-2020-12-29 23:34:39
mpfit/-2020-12-29 23:34:45
meson-mode/-2020-12-29 23:34:47
magit-popup/-2020-12-29 23:34:47
maradns/-2020-12-29 23:34:48
mclibs/-2020-12-29 23:34:50
mp3gain/-2020-12-31 06:15:01
mocker-el/-2020-12-31 17:44:48
minlog/-2021-01-01 05:24:51
mathpiper/-2021-01-02 00:22:01
magyarispell/-2021-01-02 00:22:54
mugshot/-2021-01-02 06:13:22
mono-zeroconf/-2021-01-02 06:13:23
manderlbot/-2021-01-02 06:13:23
myspell-el-gr/-2021-01-02 06:13:24
muttprofile/-2021-01-02 06:13:26
m17n-docs/-2021-01-02 23:42:13
minetest-mod-worldedit/-2021-01-03 00:27:32
monafont-ttf/-2021-01-03 00:27:32
megaglest-data/-2021-01-03 05:50:57
mail-expire/-2021-01-03 06:16:39
minetest-mod-maidroid/-2021-01-03 17:47:02
minetest-mod-intllib/-2021-01-03 17:47:02
mtkbabel/-2021-01-03 17:47:03
madbomber/-2021-01-03 18:04:59
manpages-es-extra/-2021-01-04 00:27:11
meritous/-2021-01-04 00:29:03
madlib/-2021-01-04 01:14:11
mysqltuner/-2021-01-04 18:17:54
mail-spf-perl/-2021-01-04 18:17:54
mussh/-2021-01-04 23:41:00
mon-client/-2021-01-04 23:41:00
mono-upnp/-2021-01-04 23:41:06
messagingmenu-sharp/-2021-01-04 23:41:14
mess-desktop-entries/-2021-01-05 00:06:03
msva-perl/-2021-01-05 02:13:55
mimepull/-2021-01-05 05:39:31
mp3roaster/-2021-01-05 23:56:20
modem-cmd/-2021-01-05 23:56:20
move-text-el/-2021-01-05 23:56:24
m-buffer-el/-2021-01-07 00:26:29
mkalias/-2021-01-07 00:26:31
math-numeric-tower-clojure/-2021-01-07 00:26:31
math-combinatorics-clojure/-2021-01-07 00:26:31
mha4mysql-node/-2021-01-07 00:26:31
makepp/-2021-01-07 00:26:31
medley-clojure/-2021-01-07 00:26:32
mono-debugger-libs/-2021-01-07 00:26:35
metrics-clojure/-2021-01-07 00:26:36
mono-fuse/-2021-01-07 00:27:53
manpages-hu/-2021-01-07 06:18:08
man2html/-2021-01-07 12:17:25
mussort/-2021-01-08 00:43:02
mha4mysql-manager/-2021-01-08 18:30:10
micropolis-activity/-2021-01-09 12:03:46
mithril/-2021-01-09 17:30:11
mini-httpd-run/-2021-01-10 17:28:56
muparserx/-2021-01-11 10:44:27
mom/-2021-01-12 05:23:59
mustache.js/-2021-01-13 17:47:55
mtree-netbsd/-2021-01-13 23:39:27
mustache-java/-2021-01-14 12:22:37
misspell-fixer/-2021-01-14 23:29:34
morse-x/-2021-01-16 05:53:53
mblaze/-2021-01-16 18:15:34
modernizr/-2021-01-16 21:24:01
mp3splt/-2021-01-17 01:38:52
mono.reflection/-2021-01-17 23:34:41
milib/-2021-01-19 17:29:37
mda-lv2/-2021-01-20 18:04:10
mopidy-tunein/-2021-01-21 12:18:30
mypager/-2021-01-24 06:14:48
mu-cite/-2021-01-25 00:14:46
makey/-2021-01-25 11:23:46
monokai-emacs/-2021-01-25 11:23:46
matrix-synapse-ldap3/-2021-01-28 00:20:42
mpdris2/-2021-01-29 00:23:50
memdump/-2021-02-01 05:48:46
mkautodoc/-2021-02-02 12:16:08
multiplex/-2021-02-03 18:17:27
maven-javadoc-plugin/-2021-02-03 23:24:28
metadata-json-lint/-2021-02-04 00:18:31
monkeysphere/-2021-02-04 15:58:46
mimetex/-2021-02-05 06:09:30
moblin-icon-theme/-2021-02-05 18:17:47
mozjs52/-2021-02-05 18:17:48
magic-wormhole/-2021-02-07 00:16:12
mplayer-blue/-2021-02-09 00:18:30
mp3diags/-2021-02-09 00:18:30
maven-common-artifact-filters/-2021-02-09 23:24:03
maven-site-plugin/-2021-02-09 23:24:05
maven-ant-helper/-2021-02-10 17:57:03
maven/-2021-02-12 18:14:40
moblin-cursor-theme/-2021-02-17 18:14:43
magpierss/-2021-02-17 18:14:43
mrd6/-2021-02-17 18:14:43
mpdtoys/-2021-02-18 06:15:27
maven-reporting-exec/-2021-02-18 06:15:27
man-pages-it/-2021-02-18 18:17:05
meschach/-2021-02-19 00:17:48
myspell-sk/-2021-02-19 18:43:56
masscan/-2021-02-21 00:26:19
msitools/-2021-02-21 00:26:21
mbr/-2021-02-22 12:35:48
mipe/-2021-02-23 06:16:51
manpages-ja/-2021-02-23 06:16:51
mcollective-server-provisioner/-2021-03-02 23:29:11
maven-cache-cleanup/-2021-03-05 12:17:18
moblin-sound-theme/-2021-04-10 06:15:32
monasca-statsd/-2021-04-10 18:17:32
mkdepend/-2021-04-29 06:53:55
mythtv-status/-2021-04-29 13:07:22
mailman-suite/-2021-04-29 13:39:46
metamonger/-2021-04-29 13:39:54
mailmindr/-2021-04-29 14:29:50
mmh/-2021-04-29 15:15:10
migrationtools/-2021-05-02 22:33:58
mutt/-2021-05-04 18:17:05
mysql-5.5/-2021-05-04 18:17:05
mariadb-10.1/-2021-05-13 00:15:53
mialmpick/-2021-06-02 18:19:30
mod-vhost-ldap/-2021-06-21 23:54:46
mono/-2021-06-30 13:57:09
mstch/-2021-07-11 17:28:46
mininet/-2021-07-20 10:24:10
mailman3/-2021-07-24 12:14:38
magnus/-2021-08-01 06:14:49
mpi-defaults/-2021-08-04 23:33:46
munge/-2021-08-08 00:14:14
mate-utils/-2021-08-24 01:28:44
mighttpd2/-2021-09-15 20:59:09
mu-cade/-2021-09-17 18:44:08
mongodb/-2021-10-06 00:14:51
meteo-qt/-2021-10-17 22:53:43
maildirsync/-2021-10-19 04:05:39
manpages-pt/-2021-10-19 04:05:40
manpages-zh/-2021-10-19 04:05:43
mailnag/-2021-10-19 04:05:43
metche/-2021-10-19 04:05:51
minetest-mod-craftguide/-2021-10-19 04:05:55
minetest-mod-character-creator/-2021-10-19 04:05:55
minetest-mod-mesecons/-2021-10-19 04:05:56
minetest-mod-ethereal/-2021-10-19 04:05:56
minetest-mod-moreores/-2021-10-19 04:05:56
minetest-mod-pycraft/-2021-10-19 04:05:56
minetest-mod-moreblocks/-2021-10-19 04:05:57
modsecurity-crs/-2021-10-19 04:05:58
mma/-2021-10-19 04:05:58
mopidy-local/-2021-10-19 04:06:07
mwclient/-2021-10-19 04:06:08
myspell-lv/-2021-10-19 04:06:08
myspell-pt-br/-2021-10-19 04:06:08
musescore-general-soundfont-small/-2021-10-19 04:14:07
musescore-general-soundfont/-2021-10-19 04:14:18
mapdamage/-2021-10-19 13:59:09
membernator/-2021-10-19 13:59:09
maven-scm/-2021-10-19 13:59:25
maven-jflex-plugin/-2021-10-19 15:52:01
mathlibtools/-2021-10-19 15:52:02
mpmath/-2021-10-19 16:21:38
magicrescue/-2021-10-21 06:56:30
marsshooter/-2021-10-21 06:56:36
mdk3/-2021-10-21 06:56:36
mdetect/-2021-10-21 06:56:36
mdocml/-2021-10-21 06:56:37
mdk4/-2021-10-21 06:56:37
memo/-2021-10-21 07:30:48
metastore/-2021-10-21 07:30:50
mew/-2021-10-21 07:30:51
mew-beta/-2021-10-21 07:30:51
micro-httpd/-2021-10-21 07:30:51
mimetic/-2021-10-21 07:30:53
miniasm/-2021-10-21 07:30:55
minimap/-2021-10-21 07:30:55
moon-lander/-2021-10-21 07:30:56
mp3rename/-2021-10-21 07:30:59
mrc/-2021-10-21 07:31:00
mvtnorm/-2021-10-21 07:31:03
molly-brown/-2021-10-21 16:14:16
mozillavpn/-2021-10-21 16:14:17
molequeue/-2021-10-21 19:49:48
magit/-2021-10-22 06:16:10
mystiq/-2021-10-22 11:34:04
macaulay2-jupyter-kernel/-2021-10-22 12:14:01
makeself/-2021-10-22 17:30:05
mona/-2021-10-23 11:39:08
mgt/-2021-10-24 11:34:04
minder/-2021-10-25 18:16:32
mupen64plus-video-z64/-2021-10-26 13:34:45
megaglest/-2021-10-26 14:54:09
minetest-mod-3d-armor/-2021-10-27 00:16:05
mp3val/-2021-10-28 12:19:28
metakernel/-2021-10-31 13:28:44
mckoisqldb/-2021-11-01 05:34:02
mailman/-2021-11-01 11:18:24
mupen64plus-core/-2021-11-02 05:33:54
maskprocessor/-2021-11-06 10:58:57
monty/-2021-11-06 12:08:56
mbdyn/-2021-11-06 17:18:57
minetest-mod-infinite-chest/-2021-11-06 17:34:18
minetest-mod-lucky-block/-2021-11-06 17:34:19
minetest-mod-mobs-redo/-2021-11-06 23:24:30
monopd/-2021-11-07 18:14:56
makefile2graph/-2021-11-07 23:44:42
matplotlib-inline/-2021-11-08 00:15:24
mako-notifier/-2021-11-08 06:15:32
minigalaxy/-2021-11-10 05:49:33
mxml/-2021-11-10 18:10:39
matlab-support/-2021-11-10 23:30:48
minia/-2021-11-12 17:48:50
mp3blaster/-2021-11-13 00:09:25
munin/-2021-11-16 17:57:07
mymake/-2021-11-17 18:59:02
materialize/-2021-11-19 23:29:02
mirrorbits/-2021-11-19 23:44:06
mutt-vc-query/-2021-11-21 17:39:45
minetest-mod-throwing-arrows/-2021-11-21 23:25:08
minetest-mod-throwing/-2021-11-21 23:25:09
minetest-mod-unified-inventory/-2021-11-21 23:25:09
minetest-mod-quartz/-2021-11-21 23:45:42
mysql++/-2021-11-22 23:48:55
mdbtools/-2021-11-23 03:13:59
mini-httpd/-2021-11-24 10:10:30
moonshot-ui/-2021-11-24 10:10:37
muchsync/-2021-11-24 10:10:37
modsecurity/-2021-11-25 18:38:58
meshoptimizer/-2021-11-27 00:15:41
mailfilter/-2021-11-27 08:43:45
menu-l10n/-2021-11-27 23:39:06
menu-xdg/-2021-11-27 23:39:07
mpc/-2021-12-01 13:42:06
matrix-sydent/-2021-12-01 20:29:44
minetest-mod-pipeworks/-2021-12-03 06:17:30
minetest-mod-basic-materials/-2021-12-03 06:17:30
mednaffe/-2021-12-03 12:14:48
medusa/-2021-12-03 14:45:46
minetest-mod-currency/-2021-12-04 18:14:47
mochiweb/-2021-12-05 11:19:04
mallard-rng/-2021-12-06 03:04:04
minetest-mod-unifieddyes/-2021-12-06 06:16:06
midisnoop/-2021-12-07 10:19:35
mpgrafic/-2021-12-07 19:19:24
mptp/-2021-12-07 19:19:24
mandelbulber2/-2021-12-07 20:49:43
mailavenger/-2021-12-09 00:15:53
mahimahi/-2021-12-09 00:15:53
moonshot-trust-router/-2021-12-09 18:21:49
mkcert/-2021-12-10 00:05:24
mallard-ducktype/-2021-12-13 17:24:09
muttprint/-2021-12-14 05:38:58
mate-submodules/-2021-12-14 12:17:43
mrbayes/-2021-12-14 18:16:45
multitail/-2021-12-15 06:18:08
mtpolicyd/-2021-12-15 11:34:45
miniupnpd/-2021-12-16 05:59:54
morla/-2021-12-18 06:04:00
magic/-2021-12-21 21:13:51
mm3d/-2021-12-22 12:33:57
mailman-hyperkitty/-2021-12-23 02:57:30
mailmanclient/-2021-12-23 02:57:30
mplcursors/-2021-12-23 02:57:30
markupsafe/-2021-12-23 02:57:31
mricron/-2021-12-23 02:57:40
mpb/-2021-12-23 02:57:40
multiprocess/-2021-12-23 02:57:40
mrboom/-2021-12-23 02:57:40
musescore/-2021-12-23 02:57:40
mydumper/-2021-12-23 02:57:40
movim/-2021-12-23 02:57:40
mrs/-2021-12-23 02:57:40
mstflint/-2021-12-23 02:57:40
msxpertsuite/-2021-12-23 02:57:40
musescore2/-2021-12-23 02:57:40
mp3info/-2021-12-23 02:57:40
mpack/-2021-12-23 02:57:40
mummer/-2021-12-23 02:57:40
mopidy-beets/-2021-12-23 02:57:41
morty/-2021-12-23 02:57:41
megahit/-2021-12-23 02:57:41
maffilter/-2021-12-23 02:57:41
mikutter/-2021-12-23 02:57:41
mathomatic/-2021-12-23 02:57:41
micro/-2021-12-23 02:57:41
minitube/-2021-12-23 02:57:41
metamath/-2021-12-23 02:57:41
m2l-pyqt/-2021-12-23 02:57:41
milkytracker/-2021-12-23 02:57:41
mk-configure/-2021-12-23 02:57:41
mfoc/-2021-12-23 02:57:41
mldonkey/-2021-12-23 02:57:41
metabat/-2021-12-23 02:57:41
minetest-mod-homedecor/-2021-12-23 02:57:41
moonshot-gss-eap/-2021-12-23 02:57:41
macopix/-2021-12-23 02:57:41
memtester/-2021-12-23 02:57:41
meterec/-2021-12-23 02:57:41
matchbox-window-manager/-2021-12-23 02:57:41
mocassin/-2021-12-23 02:57:41
mitmproxy/-2021-12-23 02:57:41
mnemosyne/-2021-12-23 02:57:41
mini-soong/-2021-12-23 02:57:41
mockery/-2021-12-23 02:57:41
mhc/-2021-12-23 02:57:41
mistral-tempest-plugin/-2021-12-23 02:57:41
mapsembler2/-2021-12-23 02:57:41
merkleeyes/-2021-12-23 02:57:41
minicom/-2021-12-23 02:57:41
mdcfg/-2021-12-23 02:57:41
manuskript/-2021-12-23 02:57:41
mopidy-somafm/-2021-12-23 02:57:41
materia-gtk-theme/-2021-12-23 02:57:41
mdevctl/-2021-12-23 02:57:41
mfcuk/-2021-12-23 02:57:41
misc3d/-2021-12-23 02:57:41
mmseqs2/-2021-12-23 02:57:41
mcabber/-2021-12-23 02:57:41
matchbox-keyboard/-2021-12-23 02:57:41
metamath-databases/-2021-12-23 02:57:41
manaplus/-2021-12-23 02:57:41
missfits/-2021-12-23 02:57:41
monado/-2021-12-23 02:57:59
meanwhile/-2021-12-23 02:58:00
mpfi/-2021-12-23 02:58:00
md4c/-2021-12-23 02:58:00
msgpack-c/-2021-12-23 02:58:00
mongo-cxx-driver-legacy/-2021-12-23 02:58:00
muroar/-2021-12-23 02:58:00
mikmatch/-2021-12-23 02:58:00
magic-haskell/-2021-12-23 02:58:03
missingh/-2021-12-23 02:58:03
modsecurity-apache/-2021-12-23 02:58:16
modus-themes/-2021-12-23 02:58:27
magit-todos/-2021-12-23 02:58:27
minimap-el/-2021-12-23 02:58:27
macutils/-2021-12-23 06:03:56
mrtrix3/-2021-12-24 14:44:02
madplay/-2021-12-24 23:58:53
madison-lite/-2021-12-25 05:33:57
makepasswd/-2021-12-26 23:34:03
midge/-2021-12-27 23:29:12
makepatch/-2021-12-28 05:39:15
mdk/-2021-12-31 00:18:53
meld/-2022-01-02 05:29:09
mediawiki2latex/-2022-01-02 06:18:52
mlucas/-2022-01-02 22:03:52
madness/-2022-01-03 02:58:56
mh-book/-2022-01-03 17:44:39
minissdpd/-2022-01-03 23:49:19
maelstrom/-2022-01-04 00:19:00
mknfonts.tool/-2022-01-04 11:10:01
mpdcon.app/-2022-01-04 12:49:50
mhonarc/-2022-01-04 17:34:31
mimeo/-2022-01-05 00:24:50
mygui/-2022-01-05 06:24:03
multimon-ng/-2022-01-05 18:13:56
morse/-2022-01-06 05:34:02
meshlab/-2022-01-06 06:34:03
mmc-utils/-2022-01-06 18:21:59
mlton/-2022-01-07 00:25:55
mhddfs/-2022-01-07 05:29:38
minetest-mod-protector/-2022-01-07 06:21:58
massivethreads/-2022-01-10 12:18:54
microbiomeutil/-2022-01-11 00:34:01
m16c-flash/-2022-01-11 18:43:55
mcrypt/-2022-01-14 06:23:05
mdit-py-plugins/-2022-01-14 18:19:42
music/-2022-01-14 19:39:05
maxima-sage/-2022-01-17 12:18:40
muscle/-2022-01-17 23:34:17
mesaflash/-2022-01-18 12:20:59
magit-annex/-2022-01-18 12:21:00
morsegen/-2022-01-19 00:19:19
metastudent/-2022-01-20 17:29:22
metastudent-data/-2022-01-20 17:29:25
mender-client/-2022-01-21 12:18:26
metastudent-data-2/-2022-01-21 17:34:47
mednafen/-2022-01-23 00:20:58
m17n-lib/-2022-01-24 12:20:04
mlgmp/-2022-01-24 17:57:32
mysql-ocaml/-2022-01-24 21:30:42
mcl/-2022-01-25 19:09:01
mate-common/-2022-01-26 11:54:20
mate-user-guide/-2022-01-26 11:54:22
mate-icon-theme/-2022-01-26 11:54:28
mate-themes/-2022-01-26 11:54:32
moviepy/-2022-01-26 12:19:30
monitorix/-2022-01-26 12:19:30
mate-backgrounds/-2022-01-26 12:40:15
mozo/-2022-01-26 12:40:27
mate-optimus/-2022-01-26 12:40:27
mate-desktop/-2022-01-26 12:41:09
mate-polkit/-2022-01-26 12:41:10
mate-notification-daemon/-2022-01-26 12:41:10
mate-screensaver/-2022-01-26 13:09:24
mate-media/-2022-01-26 13:09:25
mate-system-monitor/-2022-01-26 13:34:18
mate-dock-applet/-2022-01-26 13:34:20
mate-netbook/-2022-01-26 13:54:02
mate-window-applets/-2022-01-26 13:54:02
mate-indicator-applet/-2022-01-26 13:54:03
mate-user-share/-2022-01-26 13:54:03
mate-sensors-applet/-2022-01-26 14:44:38
mate-calc/-2022-01-26 14:44:39
mate-session-manager/-2022-01-26 15:03:56
mysqmail/-2022-01-27 11:44:01
minetest-mod-skyblock/-2022-01-27 23:24:24
mtr/-2022-01-29 18:18:30
mapsforge/-2022-01-30 00:19:15
mklibs/-2022-01-30 06:24:12
mlv/-2022-01-31 00:19:16
mate-panel/-2022-01-31 06:19:16
mate-applets/-2022-01-31 09:49:38
mediawiki-skin-greystuff/-2022-02-01 12:15:04
mediawiki-extension-youtube/-2022-02-01 12:15:05
mariadb-connector-odbc/-2022-02-01 12:18:50
mysql-defaults/-2022-02-02 12:20:40
mediawiki-extension-codemirror/-2022-02-02 18:20:49
massxpert/-2022-02-03 00:04:21
mantis-xray/-2022-02-03 06:21:38
mrtg/-2022-02-04 12:21:02
mpl-animators/-2022-02-06 00:19:11
mypy-protobuf/-2022-02-06 06:19:48
mbed-test-wrapper/-2022-02-06 11:28:56
mini-dinstall/-2022-02-06 11:28:56
mpfrc++/-2022-02-07 06:21:24
modplugtools/-2022-02-07 18:19:06
mmtf-java/-2022-02-07 18:19:06
mpd-sima/-2022-02-10 00:23:12
mwoauth/-2022-02-12 00:19:49
ms-gsl/-2022-02-12 11:34:18
mm-common/-2022-02-13 06:20:51
mysql-workbench/-2022-02-14 12:19:57
myspell-sq/-2022-02-14 17:38:48
milter-greylist/-2022-02-15 12:21:00
minetest-mod-nether/-2022-02-16 00:22:54
mergerfs/-2022-02-16 18:01:11
microsoft-authentication-extensions-for-python/-2022-02-17 06:25:06
monitoring-plugins/-2022-02-17 18:21:09
mgba/-2022-02-18 00:24:03
moosefs/-2022-02-18 00:24:03
mcpl/-2022-02-18 12:20:21
megan-ce/-2022-02-18 22:10:01
mongrel2/-2022-02-19 00:43:31
multiqc/-2022-02-19 12:20:11
metaphlan2/-2022-02-20 00:21:23
maude/-2022-02-20 05:49:21
malt/-2022-02-21 18:18:58
make-dfsg/-2022-02-22 06:20:10
mac-robber/-2022-02-23 06:19:05
metacam/-2022-02-23 06:19:08
microprofile/-2022-02-23 06:20:23
megapixels/-2022-02-23 12:20:21
mfgtools/-2022-02-24 12:19:03
minidb/-2022-02-25 12:19:09
mdnsd/-2022-02-25 12:19:09
mistune0/-2022-02-26 12:18:17
mayavi2/-2022-02-27 18:17:33
mixxx/-2022-03-01 06:20:56
mariadb-10.3/-2022-03-01 18:20:56
mariadb-10.5/-2022-03-01 18:20:56
miniupnpc/-2022-03-03 18:32:17
mlpost/-2022-03-03 18:32:18
mlpcap/-2022-03-03 18:32:18
mash/-2022-03-09 00:22:02
matchbox-panel-manager/-2022-03-09 23:14:38
mtpaint/-2022-03-09 23:33:54
moblin-gtk-engine/-2022-03-09 23:33:54
mplinuxman/-2022-03-09 23:33:54
matchbox-desktop/-2022-03-10 05:14:03
mosdepth/-2022-03-10 06:22:20
mlterm/-2022-03-10 14:59:26
mumble/-2022-03-11 06:21:35
mate-equake-applet/-2022-03-12 15:09:09
micropython/-2022-03-17 12:16:35
mrcal/-2022-03-18 00:20:50
mshr/-2022-03-18 06:20:37
montage/-2022-03-18 18:20:43
mit-scheme/-2022-03-19 00:20:19
mpi4py-fft/-2022-03-19 00:20:19
mirage/-2022-03-19 06:19:55
memory-allocator/-2022-03-20 18:21:39
mlpy/-2022-03-21 00:22:13
mdanalysis/-2022-03-21 00:22:13
med-fichier/-2022-03-21 06:21:24
minieigen/-2022-03-21 12:20:13
mecab/-2022-03-21 12:20:13
marisa/-2022-03-21 12:20:13
metacity/-2022-03-22 00:20:18
mp3burn/-2022-03-24 23:59:32
mtools/-2022-03-25 11:41:35
mtdev/-2022-03-25 11:41:35
mate-menu/-2022-03-26 06:18:56
modem-manager-gui/-2022-03-29 06:22:38
muffin/-2022-03-29 18:20:47
minimap2/-2022-03-30 06:19:45
meta-phosh/-2022-04-01 00:19:32
metis/-2022-04-03 06:24:02
mediawiki/-2022-04-03 12:19:39
meta-gnome3/-2022-04-04 00:19:15
moka-icon-theme/-2022-04-04 10:28:59
mrgingham/-2022-04-04 12:19:00
mini-buildd/-2022-04-04 12:19:00
mate-power-manager/-2022-04-06 18:19:14
mptcpd/-2022-04-08 08:33:53
mate-desktop-environment/-2022-04-09 18:18:18
mate-settings-daemon/-2022-04-09 18:18:18
mate-terminal/-2022-04-09 18:18:18
mate-control-center/-2022-04-10 00:18:34
mesa-amber/-2022-04-11 20:49:07
mozc/-2022-04-12 00:18:54
mate-menus/-2022-04-14 00:19:50
marco/-2022-04-14 00:19:50
mate-hud/-2022-04-14 06:19:23
mate-tweak/-2022-04-14 18:18:20
macs/-2022-04-15 18:18:00
mosquitto/-2022-04-29 09:44:15
msort/-2022-04-29 13:55:49
masakari-dashboard/-2022-04-30 03:40:07
manila-tempest-plugin/-2022-04-30 03:40:09
mapivi/-2022-04-30 03:40:10
magnum-tempest-plugin/-2022-04-30 03:40:12
mailgraph/-2022-04-30 03:40:12
mathtex/-2022-04-30 06:25:14
martchus-cpp-utilities/-2022-04-30 06:25:14
mandos/-2022-04-30 06:25:15
magics-python/-2022-04-30 06:25:15
murano-tempest-plugin/-2022-04-30 08:02:50
msp430mcu/-2022-04-30 08:02:51
mrb/-2022-04-30 08:02:51
mylvmbackup/-2022-04-30 08:02:53
mycli/-2022-04-30 08:02:55
mistral-dashboard/-2022-04-30 08:02:56
mojo-executor/-2022-04-30 08:02:57
mistune/-2022-04-30 08:02:57
mmm-mode/-2022-04-30 08:03:00
meta-unison/-2022-04-30 08:03:02
mercurial-keyring/-2022-04-30 08:03:02
medicalterms/-2022-04-30 08:03:03
mercurial-extension-utils/-2022-04-30 08:03:03
mmake/-2022-04-30 08:03:03
mcaller/-2022-04-30 08:03:04
mingw-w64/-2022-04-30 10:30:03
mkdocs-material-extensions/-2022-04-30 13:22:39
mobile-atlas-creator/-2022-04-30 13:50:12
mauve-aligner/-2022-04-30 14:40:48
moment-timezone.js/-2022-04-30 14:59:32
mbpfan/-2022-04-30 15:59:28
mbedtls/-2022-04-30 15:59:28
mdurl/-2022-04-30 16:45:19
mkdocs-autorefs/-2022-04-30 16:45:19
mediaconch/-2022-04-30 16:45:58
minidlna/-2022-04-30 16:45:58
metadata-cleaner/-2022-04-30 16:45:59
mgetty/-2022-04-30 16:45:59
microdc2/-2022-04-30 16:45:59
mmv/-2022-04-30 16:45:59
minetestmapper/-2022-04-30 16:45:59
mimalloc/-2022-04-30 16:45:59
metomi-isodatetime/-2022-04-30 16:46:01
mc/-2022-04-30 16:46:01
mmdb/-2022-04-30 16:46:05
memtailor/-2022-04-30 16:46:06
meta-kde-telepathy/-2022-04-30 16:46:06
memlockd/-2022-04-30 16:46:07
monit/-2022-04-30 17:04:33
moreutils/-2022-04-30 17:04:34
mpv-mpris/-2022-04-30 17:19:24
mousepad/-2022-04-30 17:19:24
mrtgutils/-2022-04-30 17:19:24
meep-mpi-default/-2022-04-30 17:19:25
meep-openmpi/-2022-04-30 17:19:33
mpi4py/-2022-04-30 17:34:49
msktutil/-2022-04-30 17:34:49
musl/-2022-04-30 17:34:49
muparser/-2022-04-30 17:34:49
mpd/-2022-04-30 18:04:26
meep/-2022-04-30 18:57:04
msc-generator/-2022-04-30 19:39:10
mssql-django/-2022-05-01 04:37:02
mpich/-2022-05-01 04:38:31
magit-forge-el/-2022-05-01 06:19:05
mksh/-2022-05-01 09:11:06
murasaki/-2022-05-01 09:11:40
mg/-2022-05-01 09:11:43
martchus-qtutilities/-2022-05-01 09:11:57
megadepth/-2022-05-01 09:11:58
mm/-2022-05-01 11:40:12
mkdocs-material/-2022-05-01 12:17:56
monero/-2022-05-01 13:14:09
musescore3/-2022-05-01 14:49:05
munipack/-2022-05-01 21:34:12
mozjs78/-2022-05-02 05:43:55
metapixel/-2022-05-03 05:44:16
malaga/-2022-05-03 12:19:05
maven-artifact-transfer/-2022-05-04 08:59:30
moksha.common/-2022-05-04 11:30:07
mysql-connector-python/-2022-05-04 11:30:08
musicbrainzngs/-2022-05-04 11:30:08
mutagen/-2022-05-04 11:30:08
modernize/-2022-05-04 11:30:10
mmllib/-2022-05-04 11:30:10
mimerender/-2022-05-04 11:30:10
mrtparse/-2022-05-04 11:30:11
milksnake/-2022-05-04 12:54:37
mysql-5.7/-2022-05-04 18:20:54
maven-resolver/-2022-05-04 21:19:27
maven-jaxb2-plugin/-2022-05-05 06:19:26
muse/-2022-05-05 08:07:35
mando/-2022-05-05 13:44:21
mathic/-2022-05-05 17:54:45
mescc-tools/-2022-05-05 23:49:43
mysqltcl/-2022-05-06 16:54:03
mini18n/-2022-05-06 23:39:07
multcomp/-2022-05-08 12:54:02
mgcv/-2022-05-08 16:44:48
mruby/-2022-05-09 12:25:02
mwparserfromhell/-2022-05-11 11:54:23
mdds/-2022-05-11 23:40:07
mender-cli/-2022-05-12 13:35:06
mwic/-2022-05-13 07:21:39
macsyfinder/-2022-05-13 07:21:50
mtink/-2022-05-13 08:15:36
menhir/-2022-05-14 00:19:36
morbig/-2022-05-14 05:59:48
morsmall/-2022-05-14 08:09:18
mangohud/-2022-05-14 12:19:45
mat2/-2022-05-15 00:22:36
mariadb-mysql-kbs/-2022-05-15 05:39:12
maint-guide/-2022-05-15 06:20:38
minilla/-2022-05-15 18:19:28
mumps/-2022-05-16 01:19:31
mailfront/-2022-05-16 05:54:11
martchus-qtforkawesome/-2022-05-16 18:21:33
mes/-2022-05-17 01:49:53
mondrian/-2022-05-17 17:34:56
markdown-mode/-2022-05-17 17:34:57
meta-kde/-2022-05-17 18:19:37
mu-editor/-2022-05-18 05:29:18
multiverse-core/-2022-05-18 11:29:39
mopidy/-2022-05-18 17:44:34
mopidy-podcast/-2022-05-18 17:44:34
mopidy-dleyna/-2022-05-18 17:44:35
mopidy-podcast-itunes/-2022-05-18 17:44:35
mopidy-internetarchive/-2022-05-18 17:44:36
mopidy-mpd/-2022-05-18 17:44:36
manpages-l10n/-2022-05-19 06:19:50
metkit/-2022-05-21 06:19:42
maven-debian-helper/-2022-05-23 17:24:52
maven-repo-helper/-2022-05-23 17:24:52
megatools/-2022-05-23 23:59:17
markdown-it-py/-2022-05-24 06:21:28
mkvtoolnix/-2022-05-24 18:22:43
metview/-2022-05-24 18:22:43
mockito/-2022-05-24 23:24:23
microsoft-authentication-library-for-python/-2022-05-24 23:24:25
mariadb-10.6/-2022-05-25 06:23:52
massif-visualizer/-2022-05-26 02:08:48
metatheme-gilouche/-2022-05-26 07:39:39
munkres/-2022-05-26 21:54:05
minetest/-2022-05-27 19:48:56
mtail/-2022-05-28 00:19:30
magics++/-2022-05-28 06:20:14
mkdocs-redirects/-2022-05-28 18:17:49
moarvm/-2022-05-29 00:39:43
mosh/-2022-05-29 02:03:56
mypaint/-2022-05-29 06:21:21
mindthegap/-2022-05-29 11:53:47
mpsolve/-2022-05-29 12:33:52
mirtop/-2022-05-29 17:43:52
manuel/-2022-05-29 18:18:44
mergedeep/-2022-05-29 18:18:44
minizinc-ide/-2022-05-30 00:24:55
minizinc/-2022-05-30 01:03:45
maxima/-2022-05-30 06:21:25
myproxy/-2022-05-30 06:21:25
molmodel/-2022-05-30 18:49:17
mathgl/-2022-05-30 19:18:55
mmdebstrap/-2022-05-31 00:22:07
mle/-2022-06-01 11:49:54
mktorrent/-2022-06-01 17:54:02
mkdocstrings/-2022-06-01 23:24:01
magnum/-2022-06-02 16:24:01
magnum-ui/-2022-06-02 17:14:02
manila-ui/-2022-06-02 18:09:11
masakari-monitors/-2022-06-02 18:09:12
mkgmap/-2022-06-02 18:20:23
murano/-2022-06-02 18:59:04
murano-dashboard/-2022-06-02 18:59:04
murano-agent/-2022-06-02 18:59:04
modules/-2022-06-03 06:20:50
mdtraj/-2022-06-03 12:19:03
mesa-demos/-2022-06-03 18:19:38
mkdocstrings-python-legacy/-2022-06-03 23:24:24
mir-core/-2022-06-03 23:24:46
mustache-d/-2022-06-03 23:24:46
manila/-2022-06-04 00:21:50
meson/-2022-06-04 06:20:08
mcstrans/-2022-06-04 21:14:07
makedev/-2022-06-05 00:20:10
macromoleculebuilder/-2022-06-05 00:20:10
mailfromd/-2022-06-06 06:19:51
mistral/-2022-06-06 14:04:01
maim/-2022-06-06 23:44:22
merecat/-2022-06-09 00:22:25
mpdscribble/-2022-06-10 00:08:58
materia-kde/-2022-06-10 00:23:33
music123/-2022-06-10 06:21:41
mypy/-2022-06-10 12:21:11
mwrap/-2022-06-10 21:34:00
markdownpart/-2022-06-11 00:22:10
marble/-2022-06-11 00:22:10
minuet/-2022-06-11 00:22:10
mercurial/-2022-06-11 12:19:03
mbox-importer/-2022-06-11 12:19:03
motif/-2022-06-11 21:03:47
metalfinder/-2022-06-12 06:19:30
mesa/-2022-06-12 18:18:31
mnormt/-2022-06-13 00:14:59
mathcomp-analysis/-2022-06-13 19:04:04
modemmanager-qt/-2022-06-14 00:22:08
mockldap/-2022-06-14 05:49:58
mono-addins/-2022-06-14 18:00:18
malai/-2022-06-14 18:00:19
murrine-themes/-2022-06-14 18:00:22
mrtg-ping-probe/-2022-06-14 18:00:23
mazeofgalious/-2022-06-14 18:01:09
mffm-fftw/-2022-06-14 18:01:10
mapcache/-2022-06-14 18:20:38
mapserver/-2022-06-14 18:20:38
matthiasmullie-path-converter/-2022-06-14 18:20:38
merkaartor/-2022-06-14 18:20:38
mapnik/-2022-06-15 00:20:36
mina2/-2022-06-15 11:49:49
mariadb-connector-java/-2022-06-15 11:49:50
malcontent/-2022-06-16 06:20:35
mapproxy/-2022-06-16 06:21:42
mkdocstrings-python-handlers/-2022-06-17 06:20:06
menulibre/-2022-06-17 17:40:29
medialibrary/-2022-06-18 00:20:28
mgitstatus/-2022-06-18 00:20:28
matthiasmullie-minify/-2022-06-18 06:19:35
mintstick/-2022-06-19 06:20:01
mrpt/-2022-06-19 12:19:17
memkind/-2022-06-19 19:14:05
mothur/-2022-06-20 10:24:55
mold/-2022-06-21 00:23:15
monitoring-plugins-systemd/-2022-06-21 12:20:29
metainf-services/-2022-06-21 13:04:06
mia/-2022-06-21 18:21:05
mutter/-2022-06-21 18:21:05
mpop/-2022-06-21 22:09:14
msmtp/-2022-06-21 22:09:16
mailutils/-2022-06-21 22:53:50
mimedefang/-2022-06-22 00:28:10
murphy-clojure/-2022-06-22 00:28:10
minc-tools/-2022-06-22 10:43:51
mplayer/-2022-06-22 13:19:21
maven-shared-utils/-2022-06-23 03:29:02
mpl-sphinx-theme/-2022-06-23 18:19:46
metview-python/-2022-06-23 18:19:46
makedepf90/-2022-06-24 01:44:16
myst-parser/-2022-06-24 06:20:59
minexpert2/-2022-06-24 13:28:48
matplotlib/-2022-06-24 18:18:47
miller/-2022-06-24 21:23:48
mir/-2022-06-24 22:43:57
matrix-mirage/-2022-06-25 00:19:56
mafft/-2022-06-26 00:29:17
mbuffer/-2022-06-26 12:19:03
mailscripts/-2022-06-26 12:19:03
mira/-2022-06-26 12:19:03
mysql-8.0/-2022-06-26 12:19:03
minimac4/-2022-06-26 17:24:36
moc/-2022-06-26 18:19:07
maliit-keyboard/-2022-06-27 00:20:47
maliit-framework/-2022-06-27 06:20:22
manimpango/-2022-06-27 06:20:22
m2crypto/-2022-06-27 09:29:23
mathicgb/-2022-06-27 18:19:36
mediainfo/-2022-06-28 00:59:07
md-toc/-2022-06-28 05:49:15
mediastreamer2/-2022-06-28 11:58:50
mathcomp-finmap/-2022-06-29 00:22:27
mathcomp-bigenough/-2022-06-29 00:22:27
mkosi/-2022-06-29 00:22:27
mathcomp-zify/-2022-06-29 00:22:27
mathcomp-algebra-tactics/-2022-06-29 12:19:43
mmsd-tng/-2022-06-29 12:33:56
milou/-2022-06-29 18:18:54
mathcomp-multinomials/-2022-06-29 18:18:55
mpg123/-2022-06-30 00:05:11
mlt/-2022-06-30 00:20:44
mathcomp-real-closed/-2022-06-30 00:20:44
matrix-synapse/-2022-06-30 06:19:59
monster-masher/-2022-06-30 07:43:59
mupdf/-2022-06-30 08:28:58
maildir-utils/-2022-06-30 10:18:57
mujs/-2022-06-30 18:20:11
mathjax-docs/-2022-07-01 05:44:50
mpv/-2022-07-01 06:04:01
macaulay2/-2022-07-01 06:19:47
minica/-2022-07-01 06:23:56
mkgmap-splitter/-2022-07-01 11:23:52
mongo-c-driver/-2022-07-01 12:19:45
msgpack-java/-2022-07-01 18:20:38
mlpack/-2022-07-01 21:29:14
mame/-2022-07-01 22:29:06